Home   Weather   Oakville   Past weeks

Flag for Canada Past Weather in Oakville, Ontario, Canada — Yesterday and Last 2 Weeks

Now
64 °F

Mild.


Feels Like: 64 °F
Forecast: 61 / 75 °F
Wind: 3 mph from West

Location: Burlington Piers

Current Time: Jul 26, 2017 at 4:54:25 am

Latest Report: Jul 26, 2017 at 4:00 am


Visibility: N/A

Pressure: 30.20 "Hg

Humidity: 75%

Dew Point: 56 °F

Location of OakvilleLocation

Past Weather in Oakville — Graph

°F

Oakville Temperature Yesterday

Maximum temperature yesterday: 69 °F (at 8:00 pm)
Minimum temperature yesterday: 63 °F (at 6:00 am)
Average temperature yesterday: 66 °F

High & Low Weather Summary for the Past Weeks

 TemperatureHumidityPressure
High85 °F (Jul 19, 7:00 pm)100% (Jul 17, 11:00 am)30.22 "Hg (Jul 17, 11:00 am)
Low61 °F (Jul 13, 2:00 pm)36% (Jul 18, 4:00 pm)29.70 "Hg (Jul 24, 4:00 am)
Average70 °F77%29.94 "Hg
* Reported Jul 11 3:00 am — Jul 26 3:00 am, Oakville. Weather by CustomWeather, © 2017

Note: Actual official high and low records may vary slightly from our data, if they occured in-between our weather recording intervals... More about our weather records

Advertising

Oakville Weather History for the Previous 24 Hours

Scroll right to see more
 ConditionsComfort  
Time TempWeatherWind HumidityBarometerVisibility
3:00 am
Wed, Jul 26
65 °FMild.3 mph74%30.20 "HgN/A
2:00 am66 °FMild.2 mph69%30.20 "HgN/A
1:00 am66 °FMild.No wind72%30.19 "HgN/A
12:00 am66 °FMild.5 mph71%30.22 "HgN/A
11:00 pm
Tue, Jul 25
69 °FMild.3 mph60%30.21 "HgN/A
10:00 pm69 °FMild.2 mph61%30.22 "HgN/A
9:00 pm69 °FMild.7 mph63%30.21 "HgN/A
8:00 pm69 °FMild.7 mph62%30.21 "HgN/A
7:00 pm69 °FMild.8 mph64%30.21 "HgN/A
6:00 pm69 °FMild.8 mph65%30.22 "HgN/A
5:00 pm68 °FMild.7 mph62%30.22 "HgN/A
4:00 pm68 °FMild.10 mph63%30.20 "HgN/A
3:00 pm67 °FMild.10 mph66%30.21 "HgN/A
2:00 pm66 °FMild.12 mph68%30.21 "HgN/A
1:00 pm65 °FMild.8 mph65%30.21 "HgN/A
12:00 pm65 °FMild.8 mph64%30.20 "HgN/A
11:00 am65 °FMild.8 mph65%30.20 "HgN/A
10:00 am65 °FMild.9 mph67%30.19 "HgN/A
9:00 am64 °FMild.12 mph67%30.17 "HgN/A
8:00 am64 °FMild.12 mph70%30.15 "HgN/A
7:00 am64 °FMild.9 mph70%30.13 "HgN/A
6:00 am63 °FMild.10 mph72%30.10 "HgN/A
5:00 am64 °FMild.13 mph68%30.08 "HgN/A
4:00 am64 °FMild.13 mph75%30.06 "HgN/A
Weather by CustomWeather, © 2017

See weather overviewHow to use our weather pages